Location: Oak Glen
(34.0495°N, 116.9470°E)
Time: 08:11:09
(UTC-07:00)

Tiangong 2 - Pass Details

Date: 09 October 2017
Orbit: 388 x 392 km, 42.8° (Epoch: 17 October)

Event Time Altitude Azimuth Distance (km) Brightness Sun altitude
Exits shadow 14:14:52 22° 292° (WNW) 906 2.4 -12.9°
Maximum altitude 14:16:17 33° 340° (NNW) 679 2.1 -12.6°
Drops below altitude 10° 14:19:13 10° 47° (NE) 1,419 4.6 -12.0°
Sets 14:21:26 0° 57° (ENE) 2,276 6.0 -11.5°
